Location: Bergnershof
(48.9468°N, 10.9431°E)
Time: 05:06:24
(UTC+00:00)

SL-4 R/B - Pass Details

Date: 03 March 2021
Orbit: 428 x 663 km, 51.6° (Epoch: 11 April)

Event Time Altitude Azimuth Distance (km) Brightness Sun altitude
Rises 19:51:20 0° 290° (WNW) 2,445 6.6 -27.9°
Reaches altitude 10° 19:53:33 10° 284° (WNW) 1,551 5.2 -28.2°
Enters shadow 19:54:48 20° 275° (W) 1,071 4.1 -28.4°
